Home > Weather > Riga > Past weeks

Flag for Latvia Past Weather in Riga, Latvia — Yesterday and Last 2 Weeks

Now
46 °F

Sunny.


Feels Like: 46 °F
Forecast: 47 / 71 °F
Wind: 2 mph from North

Location: Riga Airport

Current Time: May 26, 2016 at 11:32:46 PM

Latest Report: May 26, 2016 at 10:50 PM


Visibility: 10 mi

Pressure: 30.04 "Hg

Humidity: 93%

Dew Point: 45 °F

Location of RigaLocation

Past Weather in Riga — Graph

°F

Riga Temperature Yesterday

Maximum temperature yesterday: 72 °F (at 12:50 PM)
Minimum temperature yesterday: 50 °F (at 3:50 AM)
Average temperature yesterday: 63 °F

High & Low Weather Summary for the Past Weeks

 TemperatureHumidityPressure
High73 °F (May 23, 2:50 PM)100% (May 14, 10:50 AM)30.07 "Hg (May 14, 10:50 AM)
Low36 °F (May 18, 4:20 AM)24% (May 12, 3:20 PM)29.45 "Hg (May 15, 3:50 AM)
Average55 °F72%29.82 "Hg
* Reported May 11 10:20 PM — May 26 10:20 PM, Riga, Weather by CustomWeather, © 2016

Note: Actual official high and low records may vary slightly from our data, if they occured in-between our weather recording intervals... More about our weather records

Advertising

Riga Weather History for the Previous 24 Hours

Scroll right to see more
 ConditionsComfort  
Time TempWeatherWind HumidityBarometerVisibility
10:20 PM
Thu, May 26
48 °FSunny.1 mph87%30.01 "Hg10 mi
9:50 PM50 °FSunny.5 mph82%30.01 "Hg10 mi
9:20 PM52 °FSunny.9 mph82%30.01 "Hg10 mi
8:50 PM54 °FPassing clouds.9 mph77%30.01 "HgN/A
8:20 PM54 °FScattered clouds.10 mph77%30.01 "HgN/A
7:50 PM55 °FPartly sunny.9 mph72%30.01 "HgN/A
7:20 PM55 °FPartly sunny.10 mph72%29.98 "HgN/A
6:50 PM55 °FScattered clouds.12 mph72%29.98 "HgN/A
6:20 PM59 °FScattered clouds.8 mph63%29.98 "HgN/A
5:50 PM61 °FScattered clouds.7 mph63%29.95 "HgN/A
5:20 PM59 °FPartly sunny.6 mph63%29.95 "HgN/A
4:50 PM59 °FPartly sunny.5 mph63%29.95 "HgN/A
4:20 PM61 °FBroken clouds.3 mph55%29.95 "HgN/A
3:50 PM59 °FBroken clouds.6 mph63%29.95 "HgN/A
3:20 PM57 °FPartly sunny.7 mph67%29.95 "HgN/A
2:50 PM57 °FPartly sunny.5 mph67%29.95 "HgN/A
2:20 PM55 °FMore clouds than sun.5 mph67%29.95 "HgN/A
1:50 PM55 °FMore clouds than sun.5 mph72%29.95 "HgN/A
1:20 PM54 °FMostly cloudy.3 mph77%29.95 "HgN/A
12:50 PM54 °FOvercast.6 mph72%29.92 "HgN/A
12:20 PM52 °FOvercast.7 mph82%29.92 "HgN/A
11:50 AM52 °FOvercast.8 mph82%29.92 "HgN/A
11:20 AM52 °FOvercast.7 mph82%29.92 "HgN/A
10:50 AM52 °FOvercast.9 mph82%29.89 "HgN/A
10:20 AM52 °FOvercast.9 mph82%29.89 "HgN/A
9:50 AM52 °FOvercast.8 mph82%29.89 "HgN/A
9:20 AM52 °FLow clouds.9 mph88%29.86 "HgN/A
8:50 AM50 °FLow clouds.7 mph94%29.86 "HgN/A
8:20 AM50 °FLow clouds.7 mph94%29.86 "HgN/A
7:50 AM50 °FLow clouds.8 mph94%29.86 "HgN/A
7:20 AM50 °FLow clouds.9 mph100%29.86 "HgN/A
6:50 AM50 °FLow clouds.8 mph100%29.83 "Hg6 mi
6:20 AM50 °FLow clouds.8 mph100%29.83 "HgN/A
5:50 AM50 °FLow clouds.9 mph100%29.83 "Hg5 mi
5:20 AM50 °FLow clouds.8 mph100%29.83 "Hg5 mi
4:50 AM52 °FLow clouds.9 mph94%29.83 "HgN/A
4:20 AM52 °FLow clouds.8 mph94%29.80 "HgN/A
3:50 AM52 °FLow clouds.8 mph94%29.80 "HgN/A
3:20 AM52 °FLow clouds.10 mph94%29.80 "HgN/A
2:50 AM54 °FLow clouds.7 mph94%29.80 "HgN/A
2:20 AM54 °FLow clouds.7 mph94%29.80 "HgN/A
1:50 AM54 °FLow clouds.12 mph94%29.80 "HgN/A
1:20 AM54 °FLow clouds.14 mph94%29.80 "HgN/A
12:50 AM54 °FLow clouds.10 mph94%29.80 "HgN/A
12:20 AM54 °FPartly cloudy.9 mph100%29.80 "HgN/A
11:50 PM
Wed, May 25
55 °FPassing clouds.10 mph94%29.80 "HgN/A
11:20 PM55 °FPassing clouds.12 mph94%29.80 "HgN/A
Weather by CustomWeather, © 2016

See weather overviewHow to use our weather pages